St Moritz, Switzerland 16 day weather forecast

Slopes altitude range 1730 m - 3305m

Number of lifts: 54 Pistes: 350km

In some cases the lift and piste totals shown are for the ski domain (e.g. Three Valleys) rather than individual resort (e.g. Courchevel)

Overview

The 16 day weather forecast is fully updated 4 times every day.

    • Wed 26 JUN 2019
    • Wed 26
    • 21C 26C
    • Thu 27 JUN 2019
    • Thu 27
    • 20C 25C
    • Fri 28 JUN 2019
    • Fri 28
    • 16C 22C
    • Sat 29 JUN 2019
    • Sat 29
    • 17C 23C
    • Sun 30 JUN 2019
    • Sun 30
    • 17C 23C
    • Mon 01 JUL 2019
    • Mon 01
    • 20C 24C
    • Tue 02 JUL 2019
    • Tue 02
    • 15C 18C
    • Wed 03 JUL 2019
    • Wed 03
    • 12C 16C
    • Thu 04 JUL 2019
    • Thu 04
    • 15C 20C
    • Fri 05 JUL 2019
    • Fri 05
    • 16C 21C
    • Sat 06 JUL 2019
    • Sat 06
    • 8C 12C
    • Sun 07 JUL 2019
    • Sun 07
    • 11C 19C
    • Mon 08 JUL 2019
    • Mon 08
    • 15C 22C
    • Tue 09 JUL 2019
    • Tue 09
    • 16C 20C
    • Wed 10 JUL 2019
    • Wed 10
    • 16C 18C
    • Thu 11 JUL 2019
    • Thu 11
    • 16C 21C

Date:

Time Type 0°C level Temp Chill Snow Cloud Speed Gust Dir Press
3:00 4602m 12°C 12_3 0cm 13% 3mph 4mph 1025mB
6:00 4557m 12°C 12_1 0cm 8% 1mph 1mph 1026mB
9:00 4579m 21°C 21_4 0cm 0% 4mph 3mph 1025mB
12:00 4634m 26°C 26_6 0cm 0% 6mph 7mph 1024mB
15:00 4603m 26°C 26_8 0cm 0% 8mph 10mph 1024mB
18:00 4618m 26°C 26_4 0cm 0% 4mph 5mph 1025mB
21:00 4606m 14°C 14_1 0cm 0% 1mph 2mph 1026mB
0:00 4595m 14°C 14_3 0cm 0% 3mph 4mph 1026mB
3:00 4579m 13°C 13_3 0cm 0% 3mph 3mph 1025mB
6:00 4568m 12°C 12_1 0cm 0% 1mph 1mph 1024mB
9:00 4526m 20°C 20_5 0cm 0% 5mph 6mph 1023mB
12:00 4433m 25°C 25_9 0cm 0% 9mph 15mph 1022mB
15:00 4461m 25°C 25_9 0cm 0% 9mph 16mph 1021mB
18:00 4539m 25°C 25_6 0cm 12% 6mph 6mph 1021mB
21:00 4620m 13°C 13_2 0cm 5% 2mph 3mph 1023mB
0:00 4632m 12°C 12_1 0cm 3% 1mph 2mph 1023mB
3:00 4586m 11°C 11_1 0cm 3% 1mph 1mph 1022mB
6:00 4602m 10°C 10_2 0cm 3% 2mph 2mph 1021mB
9:00 4608m 16°C 16_6 0cm 0% 6mph 6mph 1020mB
12:00 4670m 22°C 22_7 0cm 0% 7mph 7mph 1019mB
15:00 4702m 22°C 22_8 0cm 0% 8mph 7mph 1018mB
18:00 4767m 22°C 22_5 0cm 0% 5mph 6mph 1019mB
21:00 4797m 10°C 10_2 0cm 0% 2mph 2mph 1021mB
0:00 4756m 10°C 10_2 0cm 0% 2mph 3mph 1021mB
3:00 4720m 9°C 9_3 0cm 0% 3mph 4mph 1020mB
6:00 4740m 9°C 9_4 0cm 0% 4mph 4mph 1020mB
9:00 4820m 17°C 17_4 0cm 0% 4mph 2mph 1019mB
12:00 4894m 23°C 23_4 0cm 0% 4mph 3mph 1018mB
15:00 4864m 24°C 24_8 0cm 0% 8mph 4mph 1017mB
18:00 4838m 24°C 24_5 0cm 0% 5mph 5mph 1018mB
21:00 4940m 12°C 12_2 0cm 0% 2mph 2mph 1020mB
0:00 4830m 11°C 11_2 0cm 0% 2mph 3mph 1020mB
3:00 4752m 10°C 10_3 0cm 0% 3mph 4mph 1020mB
6:00 4687m 10°C 10_1 0cm 0% 1mph 2mph 1020mB
9:00 4659m 18°C 18_5 0cm 52% 5mph 4mph 1020mB
12:00 4591m 23°C 23_6 0cm 57% 6mph 6mph 1019mB
15:00 4560m 24°C 24_8 0cm 0% 8mph 7mph 1019mB
18:00 4553m 24°C 24_4 0cm 0% 4mph 5mph 1020mB
21:00 4508m 13°C 13_3 0cm 0% 3mph 3mph 1021mB
0:00 4517m 12°C 12_4 0cm 0% 4mph 5mph 1021mB
3:00 4462m 12°C 12_6 0cm 0% 6mph 7mph 1020mB
6:00 4415m 12°C 12_6 0cm 0% 6mph 6mph 1019mB
9:00 4342m 20°C 20_7 0cm 0% 7mph 7mph 1019mB
12:00 4366m 24°C 24_5 0cm 46% 5mph 5mph 1017mB
15:00 4313m 24°C 24_9 0cm 53% 9mph 6mph 1017mB
18:00 4129m 24°C 24_5 0cm 76% 5mph 6mph 1019mB
21:00 4189m 13°C 13_6 0cm 97% 6mph 7mph 1020mB
0:00 4126m 11°C 11_2 0cm 96% 2mph 3mph 1020mB
3:00 4102m 11°C 11_2 0cm 100% 2mph 2mph 1018mB
6:00 4020m 10°C 10_2 0cm 100% 2mph 2mph 1018mB
9:00 4089m 15°C 15_5 0cm 98% 5mph 3mph 1018mB
12:00 4179m 18°C 18_7 0cm 99% 7mph 7mph 1018mB
15:00 4110m 17°C 17_7 0cm 100% 7mph 8mph 1018mB
18:00 4079m 17°C 17_5 0cm 100% 5mph 6mph 1018mB
21:00 4081m 11°C 11_1 0cm 99% 1mph 2mph 1019mB
0:00 4068m 10°C 10_0 0cm 100% 0mph 2mph 1019mB
3:00 4018m 10°C 10_1 0cm 100% 1mph 2mph 1019mB
6:00 3986m 9°C 9_2 0cm 100% 2mph 2mph 1019mB
9:00 3919m 12°C 12_3 0cm 100% 3mph 2mph 1019mB
12:00 3982m 16°C 16_4 0cm 100% 4mph 2mph 1018mB
15:00 3975m 17°C 17_5 0cm 100% 5mph 4mph 1018mB
18:00 4011m 17°C 17_3 0cm 100% 3mph 3mph 1018mB
21:00 4008m 10°C 10_3 0cm 24% 3mph 4mph 1019mB
0:00 3983m 10°C 10_5 0cm 46% 5mph 6mph 1019mB
3:00 3996m 9°C 9_3 0cm 72% 3mph 4mph 1018mB
6:00 4036m 9°C 9_1 0cm 61% 1mph 2mph 1018mB
9:00 3990m 15°C 15_4 0cm 40% 4mph 3mph 1017mB
12:00 4003m 20°C 20_5 0cm 33% 5mph 6mph 1017mB
15:00 3958m 20°C 20_6 0cm 56% 6mph 7mph 1016mB
18:00 4097m 20°C 20_5 0cm 64% 5mph 5mph 1017mB
21:00 4110m 11°C 11_3 0cm 69% 3mph 4mph 1018mB
0:00 4023m 10°C 10_3 0cm 35% 3mph 3mph 1018mB
3:00 3960m 10°C 10_4 0cm 0% 4mph 5mph 1018mB
6:00 4013m 10°C 10_5 0cm 11% 5mph 6mph 1017mB
9:00 3915m 16°C 16_5 0cm 29% 5mph 9mph 1017mB
12:00 4011m 21°C 21_5 0cm 51% 5mph 12mph 1017mB
15:00 4124m 22°C 22_5 0cm 87% 5mph 6mph 1016mB
18:00 3988m 22°C 22_7 0cm 85% 7mph 9mph 1017mB
21:00 4021m 11°C 11_4 0cm 100% 4mph 4mph 1019mB
0:00 3960m 10°C 10_2 0cm 100% 2mph 3mph 1019mB
Afternoon 0.0833333mm 0.3125 3476m 12°C 12_8 0cm 91% 8mph 7mph 1020mB
Morning 0mm 0 3750m 3°C 3_3 0cm 0% 3mph 4mph 1024mB
Afternoon 0mm 0 4386m 19°C 19_5 0cm 0% 5mph 4mph 1020mB
Morning 0mm 0 4440m 8°C 8_2 0cm 71% 2mph 3mph 1021mB
Afternoon 0mm 0 4287m 22°C 22_5 0cm 72% 5mph 6mph 1017mB
Morning 0.0625mm 0.1875 4270m 12°C 12_4 0cm 88% 4mph 5mph 1019mB
Afternoon 0.625mm 1.9375 4300m 20°C 20_5 0cm 87% 5mph 5mph 1017mB
Morning 0.5mm 1.5 4154m 11°C 11_1 0cm 94% 1mph 2mph 1019mB
Afternoon 0.708333mm 2.125 4115m 18°C 18_5 0cm 71% 5mph 6mph 1016mB
Morning 0.0416667mm 0.1875 4004m 10°C 10_2 0cm 55% 2mph 3mph 1017mB
Afternoon 0mm 0.0625 4038m 21°C 21_4 0cm 46% 4mph 5mph 1012mB
Morning 0.0625mm 0.1875 3998m 11°C 11_1 0cm 100% 1mph 2mph 1011mB

16 day outlook at a glance

Forecast issued: 6/26/2019 7:48:14 AM

Chat

Your comments and questions. In a resort? Let us know what it's like!


Characters left 250

For terms and conditions see Readers Comments on the Cookie and privacy policy page.